[[{"header":{"parameterUnit":"m.s-1","parameterCategory":2,"la1":30.2991,"la2":30.254,"lo1":-89.0895,"lo2":-89.0444,"dy":0.0017,"dx":0.0017,"nx":28,"ny":28,"refTime":"2026-02-02T09:00:00:Z","depth":"0","parameterNumber":2,"parameterNumberName":"U-component_of_CURRENTS"},"data":[0,0,0,0,0,0,0,0,0,0,0,0,0,0,0,0,0,0,0,0,0,0,0,0,0,0,0,0,0,0,0,0,0,0,0,0,0,0,0,0,0,0,0,0,0,0,0,0,0,0,0,0,0,0,0,0,0,0,0.0012,0.0011,0,-0.0101,-0.0102,-0.0104,-0.0208,-0.0209,-0.021,-0.0211,-0.0331,-0.0334,-0.0336,0,0,0,0,0,0,0,0,0,0,0,0,0,0.0137,0.0135,0.0012,0.0011,0.001,-0.0101,-0.0102,-0.0104,-0.0208,-0.0209,-0.021,-0.0212,-0.0331,-0.0333,-0.0336,0,0,0,0,0,0,0,0,0,0,0,0,0,0.0058,0.0134,0.0012,-0.0054,-0.0061,-0.01,-0.0102,-0.0104,-0.0207,-0.0209,-0.0211,-0.0212,-0.033,-0.0333,-0.0336,-0.0322,0,0,-0.0346,-0.0347,0,0,0,0,0,0,0,0,0.0062,0.0053,-0.0043,-0.005,-0.0058,-0.0141,-0.0103,-0.0177,-0.0207,-0.0154,-0.0211,-0.0213,-0.0266,-0.0274,-0.0294,-0.0328,-0.0333,-0.0346,-0.0348,-0.035,-0.0351,0,0,0,0,0,0,0,0.0068,0.0057,-0.0034,-0.0044,-0.0053,-0.0079,-0.0092,-0.0117,-0.02,-0.0158,-0.0166,-0.0175,-0.027,-0.0291,-0.0298,-0.0335,-0.0346,-0.0349,-0.0351,-0.0352,-0.0401,-0.0401,0,0,0,0,0,0,0.0087,0.0062,-0.0031,-0.0038,0.0001,-0.0079,-0.0094,-0.0114,-0.02,-0.0215,-0.0174,-0.018,-0.0285,-0.0294,-0.0302,-0.0338,-0.035,-0.0353,-0.0355,-0.0402,-0.0401,-0.0401,0,0,0,0,0,0,0.009,0.0079,-0.0026,0.0012,-0.0003,-0.008,-0.01,-0.0115,-0.0139,-0.0211,-0.0227,-0.0183,-0.0286,-0.0298,-0.0345,-0.0341,-0.0354,-0.0357,-0.0403,-0.0402,-0.0401,-0.0378,0,0,0,0,0,0,0.0094,0.0081,0.0085,0.0013,-0.0005,-0.0066,-0.0099,-0.0116,-0.0141,-0.015,-0.0224,-0.0237,-0.0288,-0.0339,-0.0348,-0.0346,-0.036,-0.0404,-0.0402,-0.0401,-0.038,-0.0376,-0.0374,0,0,0,0,0,0.0098,0.0091,0.0086,0.0075,-0.0001,-0.0066,-0.0078,-0.0138,-0.0139,-0.0162,-0.0209,-0.0235,-0.0337,-0.0342,-0.0352,-0.0351,-0.0404,-0.0403,-0.0401,-0.0381,-0.0377,-0.0374,0,0,0,0,0,0,0.0136,0.0079,0.007,0.0045,-0.0005,-0.0083,-0.01,-0.0124,-0.0175,-0.0171,-0.0236,-0.0254,-0.0289,-0.0315,-0.0318,-0.0358,-0.0369,-0.037,-0.035,-0.0347,-0.0344,-0.0356,-0.0362,0,0,0,0,0,0.0156,0.0145,0.0077,0.0064,0.0038,-0.0017,-0.0042,-0.0076,-0.0132,-0.0156,-0.0217,-0.0257,-0.0287,-0.0315,-0.0351,-0.0375,-0.0383,-0.0375,-0.0372,-0.0369,-0.0384,-0.0388,-0.0387,-0.0396,-0.0396,-0.0396,0,0,0.0166,0.0141,0.0131,0.0075,0.0035,-0.0007,-0.0039,-0.0074,-0.0111,-0.0156,-0.0226,-0.0249,-0.0288,-0.0327,-0.0343,-0.0354,-0.0365,-0.0368,-0.0366,-0.0382,-0.0386,-0.0386,-0.0385,-0.0395,-0.0395,-0.0395,0,0,0.0182,0.0159,0.0152,0.0111,0.0066,0.0021,0.0016,-0.0062,-0.0105,-0.0152,-0.019,-0.0221,-0.0277,-0.0323,-0.0342,-0.0337,-0.0344,-0.0327,-0.0334,-0.0337,-0.0337,-0.0337,-0.0324,-0.0323,-0.0332,-0.0332,-0.0332,0,0.0199,0.0176,0.0139,0.0116,0.0087,0.0035,0.0009,-0.0044,-0.0129,-0.0161,-0.0172,-0.0246,-0.0281,-0.0323,-0.0328,-0.0334,-0.0324,-0.0347,-0.0334,-0.0335,-0.0335,-0.0322,-0.0322,-0.033,-0.0331,-0.0331,-0.0331,0,0.0191,0.018,0.0167,0.0123,0.0091,0.0056,-0.0016,-0.0067,-0.0101,-0.015,-0.0201,-0.025,-0.027,-0.0298,-0.0316,-0.0332,-0.0318,-0.0324,-0.0346,-0.0333,-0.032,-0.0319,-0.0329,-0.0329,-0.0329,-0.033,0,0,0.0194,0.0167,0.0163,0.0154,0.0092,0.0059,-0.0002,-0.0081,-0.0121,-0.0183,-0.0227,-0.0278,-0.0258,-0.0277,-0.0292,-0.0342,-0.0328,-0.0331,-0.0332,-0.0323,-0.0313,-0.0286,-0.0283,-0.0322,-0.0322,-0.0323,-0.0295,0,0.0192,0.017,0.0156,0.0127,0.0097,0.0043,-0.0014,-0.0076,-0.0137,-0.0202,-0.0241,-0.0281,-0.0256,-0.0257,-0.0271,-0.034,-0.0329,-0.0334,-0.0324,-0.0324,-0.0306,-0.0283,-0.0213,-0.0181,-0.0295,-0.0295,-0.0295,0,0.0174,0.0166,0.0147,0.0123,0.0105,0.0078,-0.0008,-0.0055,-0.015,-0.0192,-0.0203,-0.0223,-0.0263,-0.0249,-0.0284,-0.0279,-0.0257,-0.0321,-0.032,-0.031,-0.0297,-0.0216,-0.0176,-0.003,-0.0295,-0.0295,-0.0295,0,0.0172,0.0156,0.015,0.0134,0.009,0.0067,0.0035,-0.0054,-0.0094,-0.0177,-0.0204,-0.0221,-0.0237,-0.0238,-0.0266,-0.0266,-0.0337,-0.0337,-0.0286,-0.0283,-0.0233,-0.0226,-0.0061,-0.0321,-0.0321,-0.0321,-0.0321,0,0.0152,0.0145,0.015,0.0132,0.0113,0.0092,0.0052,-0.0014,-0.0068,-0.0112,-0.0148,-0.0186,-0.0239,-0.0262,-0.0264,-0.0264,-0.0277,-0.0286,-0.0278,-0.022,-0.0212,-0.0092,-0.0168,-0.032,-0.032,-0.032,-0.032,0,0.0136,0.0139,0.0136,0.0117,0.0108,0.01,0.0071,0.0035,-0.0022,-0.0076,-0.0091,-0.0163,-0.0201,-0.0234,-0.0296,-0.0264,-0.0289,-0.0272,-0.0196,-0.0179,-0.0005,-0.0088,-0.0193,-0.0191,-0.0219,-0.0218,-0.0218,0,0.0117,0.0117,0.0127,0.013,0.0122,0.011,0.0085,0.0046,0.002,-0.0066,-0.0087,-0.0144,-0.0164,-0.0226,-0.0239,-0.0223,-0.0233,-0.0143,-0.0135,0.0021,-0.0064,-0.0204,-0.0204,-0.0047,-0.0045,-0.0043,-0.0042,0,0.0083,0.0105,0.0101,0.0116,0.0113,0.0108,0.0084,0.0092,0.0044,-0.0027,-0.0101,-0.0133,-0.0159,-0.0148,-0.0123,-0.0106,-0.0147,-0.0108,0.0036,0.0059,-0.0071,-0.0067,-0.0071,-0.0027,-0.0028,-0.0029,-0.003,-0.0031,0.006,0.0067,0.0085,0.0103,0.0098,0.0112,0.0112,0.0092,0.0054,-0.0012,-0.0065,-0.0105,-0.0065,-0.0035,0.0028,0.0184,-0.0045,0.0236,0.0117,-0.0035,-0.0029,0.0,0.006,0.0059,0.0059,0.0058,0.0057,0,0.0019,0.0048,0.0066,0.0082,0.0076,0.0086,0.0103,0.0105,0.0065,0.0023,-0.0052,0.0003,0.0112,0.0223,0.0373,0.0451,0.0369,0.0452,0.0336,0.0323,0.0404,0.0433,0.0599,0.0599,0.0599,0.0599,0.0599,0.0599,0.0004,0.0023,0.0054,0.0062,0.0064,0.0073,0.0097,0.0088,0.0093,0.0079,0.0088,0.0086,0.027,0.0494,0.0736,0.0713,0.0632,0.0484,0.0443,0.0626,0.0602,0.0578,0.0607,0.0805,0.0805,0.0455,0.0452,0.0449]},{"header":{"parameterUnit":"m.s-1","parameterCategory":2,"la1":30.2991,"la2":30.254,"lo1":-89.0895,"lo2":-89.0444,"dy":0.0017,"dx":0.0017,"nx":28,"ny":28,"refTime":"2026-02-02T09:00:00:Z","depth":"0","parameterNumber":3,"parameterNumberName":"V-component_of_CURRENTS"},"data":[0,0,0,0,0,0,0,0,0,0,0,0,0,0,0,0,0,0,0,0,0,0,0,0,0,0,0,0,0,0,0,0,0,0,0,0,0,0,0,0,0,0,0,0,0,0,0,0,0,0,0,0,0,0,0,0,0,0,-0.1043,-0.1042,0,-0.0999,-0.0998,-0.0997,-0.0934,-0.0933,-0.0933,-0.0932,-0.091,-0.091,-0.091,0,0,0,0,0,0,0,0,0,0,0,0,0,-0.1016,-0.1016,-0.1043,-0.1042,-0.1042,-0.0999,-0.0998,-0.0997,-0.0934,-0.0933,-0.0932,-0.0932,-0.091,-0.091,-0.091,0,0,0,0,0,0,0,0,0,0,0,0,0,-0.1001,-0.1017,-0.1043,-0.1009,-0.1006,-0.0999,-0.0998,-0.0996,-0.0934,-0.0933,-0.0932,-0.0931,-0.091,-0.091,-0.091,-0.093,0,0,-0.091,-0.091,0,0,0,0,0,0,0,0,-0.1002,-0.1001,-0.1014,-0.1012,-0.1008,-0.0975,-0.098,-0.0977,-0.0934,-0.0957,-0.0932,-0.0931,-0.0937,-0.0935,-0.0922,-0.0928,-0.0928,-0.091,-0.091,-0.091,-0.091,0,0,0,0,0,0,0,-0.1003,-0.1003,-0.102,-0.1014,-0.1011,-0.0977,-0.0974,-0.0978,-0.095,-0.0955,-0.0951,-0.0954,-0.0935,-0.0922,-0.0921,-0.0927,-0.091,-0.091,-0.091,-0.091,-0.0924,-0.0924,0,0,0,0,0,0,-0.1022,-0.1004,-0.1022,-0.102,-0.1008,-0.0979,-0.0975,-0.0983,-0.0949,-0.0944,-0.0955,-0.0951,-0.0922,-0.0921,-0.092,-0.0933,-0.091,-0.091,-0.091,-0.0923,-0.0924,-0.0924,0,0,0,0,0,0,-0.1022,-0.1024,-0.1024,-0.1014,-0.1012,-0.0982,-0.099,-0.0982,-0.0973,-0.095,-0.0944,-0.0954,-0.0921,-0.092,-0.0933,-0.0932,-0.091,-0.091,-0.0923,-0.0923,-0.0924,-0.0965,0,0,0,0,0,0,-0.1021,-0.1025,-0.1031,-0.1016,-0.1014,-0.1037,-0.0991,-0.0982,-0.0978,-0.0973,-0.0948,-0.0944,-0.0921,-0.0933,-0.0933,-0.0932,-0.091,-0.0922,-0.0923,-0.0924,-0.0963,-0.0967,-0.097,0,0,0,0,0,-0.1021,-0.1045,-0.1032,-0.1034,-0.1026,-0.1038,-0.1034,-0.1005,-0.098,-0.0989,-0.0967,-0.0945,-0.0936,-0.0935,-0.0934,-0.0932,-0.0922,-0.0923,-0.0924,-0.0962,-0.0966,-0.097,0,0,0,0,0,0,-0.1044,-0.1041,-0.1026,-0.1049,-0.105,-0.103,-0.1041,-0.1015,-0.1003,-0.0994,-0.0964,-0.096,-0.0965,-0.0951,-0.095,-0.0937,-0.092,-0.0921,-0.0949,-0.0953,-0.0956,-0.0963,-0.091,0,0,0,0,0,-0.1053,-0.1064,-0.106,-0.1079,-0.1088,-0.1064,-0.1063,-0.1041,-0.1031,-0.1022,-0.1009,-0.0986,-0.0968,-0.0964,-0.0954,-0.0962,-0.093,-0.0955,-0.0959,-0.0962,-0.0967,-0.091,-0.0909,-0.0927,-0.0927,-0.0927,0,0,-0.107,-0.1068,-0.1075,-0.1083,-0.1083,-0.1095,-0.1061,-0.107,-0.1066,-0.1026,-0.1031,-0.1007,-0.0974,-0.0972,-0.0972,-0.0961,-0.0942,-0.0963,-0.0966,-0.0969,-0.0911,-0.0909,-0.0907,-0.0927,-0.0927,-0.0927,0,0,-0.1105,-0.1111,-0.1128,-0.1133,-0.1135,-0.1125,-0.1133,-0.1123,-0.111,-0.1111,-0.1071,-0.1058,-0.1041,-0.1014,-0.0995,-0.1018,-0.0964,-0.1003,-0.1024,-0.097,-0.0967,-0.0965,-0.0931,-0.0925,-0.1001,-0.1002,-0.1002,0,-0.112,-0.1135,-0.1138,-0.1154,-0.1158,-0.1144,-0.1158,-0.1153,-0.1142,-0.1133,-0.1122,-0.1075,-0.1059,-0.1032,-0.1031,-0.1026,-0.0985,-0.1011,-0.0973,-0.097,-0.0967,-0.0932,-0.0925,-0.1004,-0.1003,-0.1003,-0.1003,0,-0.1162,-0.117,-0.1192,-0.1199,-0.1208,-0.1226,-0.1222,-0.123,-0.1211,-0.1184,-0.1166,-0.1139,-0.1075,-0.1092,-0.1067,-0.1033,-0.1009,-0.0985,-0.0962,-0.0967,-0.0931,-0.0923,-0.1007,-0.1006,-0.1005,-0.1005,0,0,-0.1202,-0.1214,-0.1218,-0.1214,-0.1227,-0.1237,-0.1257,-0.1256,-0.1251,-0.1234,-0.1212,-0.1185,-0.1118,-0.1093,-0.1054,-0.1054,-0.1004,-0.1009,-0.1005,-0.0975,-0.0883,-0.0916,-0.091,-0.0957,-0.0956,-0.0955,-0.087,0,-0.1228,-0.125,-0.125,-0.1269,-0.1282,-0.128,-0.1297,-0.1289,-0.1275,-0.126,-0.1218,-0.1187,-0.1124,-0.1091,-0.1049,-0.1031,-0.0983,-0.103,-0.0883,-0.088,-0.0907,-0.0902,-0.0895,-0.0822,-0.0862,-0.0861,-0.086,0,-0.1262,-0.1265,-0.1284,-0.1283,-0.1292,-0.1304,-0.1313,-0.1317,-0.1299,-0.1286,-0.1215,-0.116,-0.111,-0.1075,-0.0967,-0.0988,-0.0906,-0.0915,-0.091,-0.092,-0.0897,-0.0821,-0.0806,-0.0591,-0.0847,-0.0848,-0.0849,0,-0.1273,-0.1286,-0.1292,-0.1296,-0.1305,-0.1315,-0.1321,-0.1321,-0.1314,-0.1289,-0.1272,-0.117,-0.1118,-0.1021,-0.094,-0.0932,-0.0875,-0.0845,-0.0798,-0.08,-0.0759,-0.076,-0.0519,-0.0744,-0.0744,-0.0744,-0.0745,0,-0.1294,-0.1298,-0.1296,-0.1304,-0.1312,-0.1315,-0.1318,-0.1331,-0.1317,-0.1302,-0.1238,-0.1204,-0.1102,-0.1028,-0.0943,-0.0846,-0.0814,-0.0805,-0.0777,-0.0776,-0.078,-0.0564,-0.0467,-0.0741,-0.0742,-0.0743,-0.0743,0,-0.1301,-0.1304,-0.1302,-0.1309,-0.1317,-0.1315,-0.1318,-0.1315,-0.1319,-0.1298,-0.1285,-0.1214,-0.114,-0.1056,-0.0956,-0.0857,-0.0708,-0.0755,-0.0782,-0.0761,-0.0537,-0.0445,-0.0327,-0.0245,-0.0687,-0.0687,-0.0687,0,-0.1304,-0.1304,-0.1304,-0.1301,-0.1304,-0.1304,-0.1311,-0.1317,-0.1311,-0.13,-0.1287,-0.123,-0.1156,-0.1042,-0.0961,-0.0841,-0.068,-0.0723,-0.0712,-0.0523,-0.0398,-0.0422,-0.0361,-0.0667,-0.0667,-0.0667,-0.0667,0,-0.1295,-0.129,-0.1288,-0.1289,-0.129,-0.1287,-0.1296,-0.1286,-0.1287,-0.1305,-0.1292,-0.1254,-0.1159,-0.108,-0.0956,-0.084,-0.0612,-0.0721,-0.0489,-0.0341,-0.0383,-0.0292,-0.0734,-0.0667,-0.0667,-0.0667,-0.0667,-0.0667,-0.1273,-0.1266,-0.1262,-0.1261,-0.1267,-0.1261,-0.1253,-0.1268,-0.1276,-0.1281,-0.1268,-0.1249,-0.1159,-0.1017,-0.0846,-0.0552,-0.0604,-0.0418,-0.0316,-0.0355,-0.029,-0.0762,-0.0694,-0.0694,-0.0694,-0.0694,-0.0694,0,-0.1234,-0.1234,-0.1237,-0.1233,-0.1239,-0.1249,-0.1242,-0.1231,-0.1248,-0.1284,-0.1287,-0.1231,-0.1036,-0.0826,-0.0516,-0.0197,-0.0136,0.0003,0.0047,0.0097,-0.0261,-0.0269,-0.0149,-0.0149,-0.015,-0.015,-0.015,-0.015,-0.1206,-0.1192,-0.1202,-0.1199,-0.1211,-0.1191,-0.1177,-0.1198,-0.122,-0.1251,-0.1272,-0.1234,-0.09,-0.0382,0.0177,0.0302,0.054,0.0484,0.0622,0.0485,0.0455,0.0427,0.0448,0.0716,0.0717,0.0916,0.0919,0.0921]}],[{"header":{"parameterUnit":"m.s-1","parameterCategory":2,"la1":30.2991,"la2":30.254,"lo1":-89.0895,"lo2":-89.0444,"dy":0.0017,"dx":0.0017,"nx":28,"ny":28,"refTime":"2026-02-02T09:00:00:Z","depth":"2","parameterNumber":2,"parameterNumberName":"U-component_of_CURRENTS"},"data":[0,0,0,0,0,0,0,0,0,0,0,0,0,0,0,0,0,0,0,0,0,0,0,0,0,0,0,0,0,0,0,0,0,0,0,0,0,0,0,0,0,0,0,0,0,0,0,0,0,0,0,0,0,0,0,0,0,0,-0.2232,-0.2232,0,-0.2264,-0.2265,-0.2265,-0.2175,-0.2173,-0.2171,-0.2168,-0.2059,-0.2058,-0.2058,0,0,0,0,0,0,0,0,0,0,0,0,0,-0.2165,-0.2166,-0.2232,-0.2233,-0.2233,-0.2264,-0.2265,-0.2265,-0.2176,-0.2173,-0.217,-0.2167,-0.2059,-0.2058,-0.2058,0,0,0,0,0,0,0,0,0,0,0,0,0,-0.2192,-0.2167,-0.2232,-0.2195,-0.2193,-0.2264,-0.2265,-0.2265,-0.2177,-0.2173,-0.2169,-0.2166,-0.2059,-0.2059,-0.2058,-0.2125,0,0,-0.2055,-0.2054,0,0,0,0,0,0,0,0,-0.2191,-0.2194,-0.22,-0.2198,-0.2195,-0.2215,-0.2201,-0.2212,-0.2177,-0.2179,-0.2168,-0.2164,-0.2103,-0.2098,-0.211,-0.212,-0.2115,-0.2055,-0.2054,-0.2054,-0.2053,0,0,0,0,0,0,0,-0.2189,-0.2193,-0.2241,-0.2201,-0.2198,-0.2203,-0.2201,-0.2204,-0.2156,-0.2179,-0.2173,-0.2183,-0.21,-0.2111,-0.2106,-0.2114,-0.2055,-0.2054,-0.2053,-0.2053,-0.2131,-0.2133,0,0,0,0,0,0,-0.2193,-0.2191,-0.224,-0.2242,-0.2188,-0.2207,-0.2205,-0.221,-0.2159,-0.215,-0.2187,-0.2179,-0.2114,-0.2107,-0.2102,-0.2105,-0.2054,-0.2053,-0.2052,-0.2128,-0.2131,-0.2134,0,0,0,0,0,0,-0.2191,-0.2197,-0.2239,-0.222,-0.2226,-0.2211,-0.2218,-0.2212,-0.2206,-0.2167,-0.2153,-0.2184,-0.2111,-0.2103,-0.2111,-0.2102,-0.2052,-0.2051,-0.2125,-0.2129,-0.2133,-0.2158,0,0,0,0,0,0,-0.2189,-0.2196,-0.2198,-0.2221,-0.2228,-0.2289,-0.2221,-0.2216,-0.2221,-0.2211,-0.2161,-0.2148,-0.2108,-0.2113,-0.211,-0.21,-0.2051,-0.2122,-0.2127,-0.2132,-0.2153,-0.2162,-0.2169,0,0,0,0,0,-0.2186,-0.2217,-0.2198,-0.2204,-0.2232,-0.2292,-0.2297,-0.2271,-0.2224,-0.2246,-0.221,-0.2149,-0.2141,-0.2116,-0.2111,-0.21,-0.2119,-0.2125,-0.2131,-0.215,-0.216,-0.2169,0,0,0,0,0,0,-0.2184,-0.2213,-0.2191,-0.2224,-0.2255,-0.2278,-0.2296,-0.228,-0.2273,-0.2247,-0.2192,-0.218,-0.2183,-0.2164,-0.2137,-0.2145,-0.2118,-0.2123,-0.2133,-0.2143,-0.2151,-0.2104,-0.205,0,0,0,0,0,-0.219,-0.2213,-0.2244,-0.2266,-0.2286,-0.2289,-0.2305,-0.2294,-0.2296,-0.2287,-0.2252,-0.2223,-0.2215,-0.2194,-0.2194,-0.2204,-0.2154,-0.2198,-0.2205,-0.2212,-0.2177,-0.2123,-0.212,-0.2154,-0.2154,-0.2154,0,0,-0.2186,-0.2211,-0.2216,-0.2267,-0.228,-0.2316,-0.2288,-0.2324,-0.2329,-0.2279,-0.2269,-0.2258,-0.2233,-0.2238,-0.2235,-0.2208,-0.2186,-0.2219,-0.2224,-0.2185,-0.2129,-0.2124,-0.2121,-0.2158,-0.2157,-0.2156,0,0,-0.2212,-0.2223,-0.2252,-0.2289,-0.233,-0.2342,-0.2354,-0.2379,-0.2363,-0.2383,-0.2338,-0.2321,-0.2319,-0.2282,-0.2266,-0.2327,-0.2242,-0.2335,-0.231,-0.226,-0.2254,-0.2249,-0.2204,-0.2194,-0.2322,-0.2322,-0.2322,0,-0.2204,-0.2235,-0.2272,-0.2318,-0.2333,-0.2352,-0.2377,-0.2395,-0.2411,-0.2388,-0.238,-0.2344,-0.2329,-0.2295,-0.2311,-0.2333,-0.2293,-0.2266,-0.2262,-0.2256,-0.2249,-0.2204,-0.2193,-0.2324,-0.2323,-0.2323,-0.2323,0,-0.2248,-0.2273,-0.2303,-0.2346,-0.238,-0.2416,-0.2444,-0.2455,-0.2435,-0.2425,-0.24,-0.2388,-0.234,-0.2356,-0.2343,-0.2298,-0.2283,-0.2286,-0.2219,-0.2246,-0.2199,-0.2187,-0.2326,-0.2326,-0.2325,-0.2325,0,0,-0.2196,-0.2308,-0.2303,-0.232,-0.2388,-0.2415,-0.244,-0.2448,-0.2423,-0.2431,-0.2383,-0.2378,-0.2339,-0.232,-0.2304,-0.2262,-0.2206,-0.2248,-0.2244,-0.2169,-0.2087,-0.2026,-0.2006,-0.2198,-0.2196,-0.2194,-0.2079,0,-0.2196,-0.2271,-0.2322,-0.2358,-0.239,-0.242,-0.2434,-0.2442,-0.2435,-0.2409,-0.2374,-0.2337,-0.2337,-0.2299,-0.2262,-0.2225,-0.2171,-0.2236,-0.2101,-0.2096,-0.2009,-0.1988,-0.1819,-0.1696,-0.2066,-0.2064,-0.2062,0,-0.2179,-0.2239,-0.2279,-0.234,-0.2351,-0.2367,-0.2354,-0.2378,-0.2364,-0.235,-0.2303,-0.2282,-0.2219,-0.2226,-0.2122,-0.216,-0.2111,-0.2084,-0.2079,-0.1988,-0.2009,-0.1729,-0.1658,-0.2041,-0.2042,-0.2044,-0.2045,0,-0.2079,-0.2181,-0.2201,-0.2228,-0.2315,-0.2301,-0.2322,-0.2326,-0.2315,-0.2289,-0.2249,-0.2205,-0.2138,-0.2091,-0.2038,-0.2065,-0.193,-0.1962,-0.1856,-0.1852,-0.166,-0.1642,-0.1863,-0.1863,-0.1864,-0.1864,-0.1864,0,-0.2033,-0.2037,-0.2151,-0.2158,-0.2156,-0.2231,-0.2195,-0.2215,-0.2212,-0.2179,-0.2185,-0.2127,-0.2093,-0.2026,-0.2006,-0.1878,-0.1891,-0.1818,-0.1801,-0.1672,-0.1658,-0.1921,-0.1929,-0.186,-0.1861,-0.1861,-0.1862,0,-0.1898,-0.198,-0.2003,-0.2089,-0.2105,-0.2087,-0.2119,-0.2102,-0.2108,-0.2062,-0.2039,-0.202,-0.193,-0.1905,-0.1821,-0.1791,-0.1721,-0.1673,-0.153,-0.1498,-0.1688,-0.17,-0.1528,-0.1525,-0.1522,-0.1519,-0.1517,0,-0.1851,-0.1848,-0.1919,-0.1923,-0.195,-0.1956,-0.1957,-0.2016,-0.2009,-0.1991,-0.1956,-0.1869,-0.1775,-0.1641,-0.1569,-0.1478,-0.16,-0.1306,-0.1323,-0.1643,-0.1645,-0.1662,-0.1677,-0.1091,-0.1085,-0.1081,-0.1077,0,-0.175,-0.1747,-0.1771,-0.1785,-0.179,-0.1814,-0.183,-0.1822,-0.1882,-0.1823,-0.1768,-0.1689,-0.1535,-0.1344,-0.1233,-0.119,-0.1317,-0.1212,-0.1533,-0.1221,-0.1225,-0.1231,-0.1261,-0.1038,-0.1042,-0.1045,-0.1047,-0.1048,-0.1653,-0.1627,-0.1649,-0.1645,-0.1664,-0.168,-0.1658,-0.1663,-0.1627,-0.1515,-0.1546,-0.1335,-0.1255,-0.0961,-0.0906,-0.0891,-0.1005,-0.0979,-0.0993,-0.1013,-0.1002,-0.1002,-0.077,-0.0773,-0.0775,-0.0776,-0.0778,0,-0.1566,-0.1537,-0.1521,-0.1529,-0.1512,-0.1565,-0.1581,-0.15,-0.1403,-0.1286,-0.1148,-0.0899,-0.069,-0.0673,-0.0549,-0.0536,-0.0549,-0.0548,-0.0558,-0.0595,-0.0629,-0.0602,-0.0262,-0.0261,-0.026,-0.026,0,0,-0.1514,-0.1471,-0.1456,-0.1402,-0.1396,-0.1365,-0.1364,-0.1216,-0.1102,-0.0868,-0.0715,-0.0565,-0.0585,-0.0386,-0.0356,-0.0301,-0.0455,-0.0278,-0.068,-0.0726,-0.0759,-0.0852,-0.0848,0,0,0,0,0]},{"header":{"parameterUnit":"m.s-1","parameterCategory":2,"la1":30.2991,"la2":30.254,"lo1":-89.0895,"lo2":-89.0444,"dy":0.0017,"dx":0.0017,"nx":28,"ny":28,"refTime":"2026-02-02T09:00:00:Z","depth":"2","parameterNumber":3,"parameterNumberName":"V-component_of_CURRENTS"},"data":[0,0,0,0,0,0,0,0,0,0,0,0,0,0,0,0,0,0,0,0,0,0,0,0,0,0,0,0,0,0,0,0,0,0,0,0,0,0,0,0,0,0,0,0,0,0,0,0,0,0,0,0,0,0,0,0,0,0,0.0629,0.0629,0,0.0648,0.0649,0.0649,0.0672,0.0672,0.0672,0.0672,0.0685,0.0686,0.0686,0,0,0,0,0,0,0,0,0,0,0,0,0,0.0754,0.0751,0.0629,0.0629,0.0629,0.0648,0.0649,0.0649,0.0672,0.0672,0.0672,0.0672,0.0685,0.0686,0.0686,0,0,0,0,0,0,0,0,0,0,0,0,0,0.0732,0.075,0.0629,0.064,0.064,0.0648,0.0649,0.065,0.0672,0.0672,0.0672,0.0672,0.0685,0.0686,0.0686,0.069,0,0,0.0688,0.0688,0,0,0,0,0,0,0,0,0.0733,0.0728,0.0638,0.0639,0.064,0.0654,0.0698,0.0661,0.0672,0.0664,0.0672,0.0672,0.0672,0.0674,0.0683,0.069,0.0691,0.0688,0.0688,0.0688,0.0689,0,0,0,0,0,0,0,0.0735,0.0728,0.064,0.0638,0.0639,0.0692,0.0688,0.0692,0.0671,0.0665,0.0666,0.0662,0.0673,0.0682,0.0683,0.0691,0.0688,0.0688,0.0689,0.0689,0.0768,0.0769,0,0,0,0,0,0,0.0716,0.0728,0.064,0.0641,0.0683,0.0689,0.0685,0.0653,0.0671,0.0673,0.0662,0.0663,0.0681,0.0683,0.0684,0.074,0.0688,0.0689,0.0689,0.0766,0.0768,0.077,0,0,0,0,0,0,0.0718,0.0707,0.0639,0.0684,0.0679,0.0685,0.065,0.0653,0.0662,0.0668,0.067,0.0667,0.0681,0.0683,0.0706,0.0738,0.0689,0.069,0.0764,0.0767,0.0769,0.0818,0,0,0,0,0,0,0.0721,0.0707,0.0694,0.0682,0.0675,0.064,0.065,0.0653,0.0658,0.0659,0.0673,0.0674,0.0682,0.0705,0.0706,0.0738,0.069,0.0762,0.0765,0.0768,0.0814,0.0822,0.0829,0,0,0,0,0,0.0725,0.0697,0.0692,0.0683,0.065,0.0639,0.0641,0.0651,0.0658,0.066,0.0685,0.0674,0.0728,0.0707,0.0708,0.074,0.076,0.0764,0.0768,0.0811,0.0821,0.0829,0,0,0,0,0,0,0.0749,0.0695,0.0691,0.0648,0.0644,0.0641,0.0642,0.0649,0.0671,0.0674,0.0688,0.0692,0.0727,0.0726,0.0702,0.0775,0.0745,0.075,0.0778,0.0787,0.0794,0.077,0.069,0,0,0,0,0,0.0744,0.0706,0.0679,0.0651,0.0641,0.0644,0.0645,0.0647,0.0657,0.0666,0.0682,0.0708,0.0745,0.0757,0.0777,0.0807,0.0804,0.0832,0.084,0.0846,0.0829,0.0887,0.0898,0.0783,0.0783,0.0783,0,0,0.0749,0.0714,0.0695,0.0654,0.0649,0.0636,0.0645,0.0636,0.0649,0.0663,0.0692,0.0726,0.0758,0.0804,0.082,0.0805,0.0875,0.0851,0.0856,0.0835,0.0892,0.0903,0.0913,0.0786,0.0785,0.0785,0,0,0.0729,0.0701,0.0661,0.065,0.0629,0.0635,0.0629,0.0627,0.065,0.0674,0.0711,0.0766,0.0791,0.0845,0.0872,0.0928,0.0911,0.0936,0.0953,0.1011,0.102,0.1029,0.1025,0.1032,0.0941,0.0941,0.0942,0,0.0743,0.0672,0.0657,0.0621,0.0613,0.063,0.0605,0.0636,0.0653,0.0684,0.0682,0.0787,0.0816,0.0906,0.0933,0.0945,0.0947,0.0917,0.102,0.1028,0.1035,0.103,0.1037,0.0944,0.0944,0.0944,0.0943,0,0.0686,0.0643,0.0621,0.0578,0.0582,0.0559,0.0585,0.0613,0.0643,0.0681,0.0764,0.0825,0.088,0.0924,0.0942,0.1029,0.1002,0.1021,0.0993,0.105,0.104,0.1047,0.0948,0.0947,0.0947,0.0946,0,0,0.0679,0.0594,0.0587,0.0556,0.055,0.0539,0.0582,0.062,0.0654,0.0717,0.0772,0.0879,0.0913,0.0946,0.1001,0.1067,0.1131,0.1061,0.1063,0.1047,0.1211,0.1088,0.1083,0.1171,0.1172,0.1174,0.1176,0,0.064,0.0543,0.0533,0.049,0.0446,0.0491,0.0525,0.0581,0.0645,0.071,0.0821,0.0879,0.0924,0.0952,0.1033,0.1111,0.1153,0.1125,0.1165,0.1165,0.1043,0.109,0.1067,0.1059,0.1183,0.1184,0.1185,0,0.0584,0.0523,0.0445,0.0417,0.0408,0.0405,0.0463,0.0496,0.0617,0.0667,0.0769,0.0842,0.096,0.0978,0.1127,0.1103,0.1142,0.12,0.1202,0.1069,0.1055,0.1027,0.1066,0.1197,0.1196,0.1195,0.1194,0,0.0548,0.0473,0.0403,0.0387,0.0365,0.0369,0.038,0.0478,0.0515,0.0631,0.0668,0.0823,0.0876,0.099,0.1092,0.1112,0.1227,0.1271,0.1193,0.1183,0.1158,0.1141,0.1348,0.1348,0.1348,0.1348,0.1348,0,0.0493,0.0449,0.0369,0.0326,0.0287,0.03,0.0305,0.0358,0.0436,0.0482,0.0621,0.0672,0.0882,0.0978,0.1076,0.1131,0.1206,0.1182,0.1184,0.117,0.1155,0.1273,0.1264,0.1348,0.1348,0.1348,0.1348,0,0.0468,0.0408,0.0326,0.0266,0.0254,0.0223,0.0221,0.0238,0.031,0.0373,0.0399,0.0562,0.0669,0.0843,0.1013,0.1072,0.1163,0.1152,0.1081,0.1072,0.1083,0.1077,0.1087,0.1082,0.1079,0.1076,0.1073,0,0.0455,0.039,0.0274,0.0223,0.0188,0.0143,0.0128,0.017,0.0191,0.0294,0.032,0.0432,0.047,0.0644,0.0834,0.0959,0.1028,0.0969,0.1009,0.106,0.1061,0.1061,0.1059,0.1003,0.1,0.0998,0.0996,0,0.0436,0.0372,0.029,0.0168,0.0109,0.0061,0.0034,0.0025,0.0091,0.0104,0.0128,0.0143,0.0331,0.0469,0.0634,0.0719,0.0957,0.0917,0.1037,0.1043,0.0974,0.0977,0.0981,0.0976,0.0978,0.0979,0.098,0.0981,0.0437,0.0359,0.0226,0.0122,0.0051,-0.0015,-0.0068,-0.0093,-0.0126,-0.0095,-0.0056,0.0005,0.0164,0.04,0.0503,0.0709,0.0758,0.0822,0.0834,0.0847,0.0808,0.0733,0.068,0.068,0.068,0.0681,0.0681,0,0.0429,0.0316,0.0204,0.0057,-0.0044,-0.0052,-0.0115,-0.0183,-0.0272,-0.0184,-0.0214,-0.0073,0.0042,0.0282,0.0572,0.0635,0.0696,0.0637,0.0741,0.076,0.0777,0.0739,0.0591,0.059,0.059,0.059,0,0,0.0414,0.0277,0.0189,0.0005,-0.0087,-0.0209,-0.0259,-0.0352,-0.0321,-0.0328,-0.0201,-0.0145,0.0119,0.0265,0.0373,0.053,0.0615,0.052,0.0587,0.0714,0.0729,0.0878,0.0838,0,0,0,0,0]}],[{"header":{"parameterUnit":"m.s-1","parameterCategory":2,"la1":30.2991,"la2":30.254,"lo1":-89.0895,"lo2":-89.0444,"dy":0.0017,"dx":0.0017,"nx":28,"ny":28,"refTime":"2026-02-02T09:00:00:Z","depth":"4","parameterNumber":2,"parameterNumberName":"U-component_of_CURRENTS"},"data":[0,0,0,0,0,0,0,0,0,0,0,0,0,0,0,0,0,0,0,0,0,0,0,0,0,0,0,0,0,0,0,0,0,0,0,0,0,0,0,0,0,0,0,0,0,0,0,0,0,0,0,0,0,0,0,0,0,0,-0.0862,-0.0862,0,-0.0913,-0.0914,-0.0915,-0.0958,-0.0958,-0.0958,-0.0958,-0.1029,-0.1031,-0.1032,0,0,0,0,0,0,0,0,0,0,0,0,0,-0.0802,-0.0803,-0.0862,-0.0862,-0.0862,-0.0913,-0.0914,-0.0915,-0.0958,-0.0958,-0.0958,-0.0958,-0.1028,-0.103,-0.1033,0,0,0,0,0,0,0,0,0,0,0,0,0,-0.0843,-0.0804,-0.0862,-0.0886,-0.0889,-0.0913,-0.0914,-0.0916,-0.0958,-0.0958,-0.0958,-0.0958,-0.1027,-0.103,-0.1033,-0.105,0,0,-0.1041,-0.1043,0,0,0,0,0,0,0,0,-0.084,-0.0846,-0.0883,-0.0885,-0.0887,-0.0925,-0.0919,-0.096,-0.0958,-0.0937,-0.0958,-0.0958,-0.0993,-0.0998,-0.1015,-0.1053,-0.1056,-0.1042,-0.1043,-0.1045,-0.1045,0,0,0,0,0,0,0,-0.0838,-0.0844,-0.0888,-0.0883,-0.0885,-0.0894,-0.0901,-0.0927,-0.0968,-0.0939,-0.0941,-0.0939,-0.0995,-0.1012,-0.1017,-0.1057,-0.1042,-0.1044,-0.1046,-0.1047,-0.1188,-0.119,0,0,0,0,0,0,-0.0821,-0.0841,-0.0886,-0.0889,-0.0858,-0.0895,-0.0902,-0.0917,-0.0968,-0.0974,-0.0939,-0.094,-0.1007,-0.1013,-0.1019,-0.1087,-0.1045,-0.1047,-0.1049,-0.1186,-0.1189,-0.1191,0,0,0,0,0,0,-0.082,-0.0826,-0.0884,-0.0861,-0.0868,-0.0895,-0.0912,-0.0918,-0.0958,-0.0966,-0.0974,-0.0974,-0.1007,-0.1015,-0.107,-0.1088,-0.1048,-0.1051,-0.1184,-0.1187,-0.119,-0.1194,0,0,0,0,0,0,-0.0819,-0.0825,-0.0843,-0.086,-0.0869,-0.0919,-0.0911,-0.0919,-0.0952,-0.0956,-0.0998,-0.1004,-0.1008,-0.1065,-0.1072,-0.1091,-0.1053,-0.1181,-0.1185,-0.1189,-0.1191,-0.1196,-0.1201,0,0,0,0,0,-0.0817,-0.0835,-0.0845,-0.085,-0.0889,-0.092,-0.0927,-0.0948,-0.0954,-0.0983,-0.1011,-0.1004,-0.1095,-0.107,-0.1077,-0.1097,-0.1179,-0.1184,-0.1189,-0.1189,-0.1195,-0.1201,0,0,0,0,0,0,-0.0818,-0.0841,-0.0852,-0.0878,-0.0906,-0.0926,-0.0948,-0.0963,-0.101,-0.1012,-0.1029,-0.1038,-0.1095,-0.1104,-0.1076,-0.1154,-0.1137,-0.1143,-0.1134,-0.1141,-0.1146,-0.1149,-0.1055,0,0,0,0,0,-0.0825,-0.0848,-0.0872,-0.0894,-0.091,-0.0936,-0.0954,-0.0966,-0.0997,-0.1018,-0.1049,-0.1082,-0.1118,-0.1135,-0.1171,-0.121,-0.1211,-0.1231,-0.1237,-0.124,-0.1252,-0.1276,-0.1283,-0.1206,-0.1206,-0.1206,0,0,-0.0831,-0.0844,-0.0859,-0.0896,-0.0919,-0.0944,-0.095,-0.0979,-0.1002,-0.1017,-0.1075,-0.1108,-0.1137,-0.1184,-0.1209,-0.1192,-0.1262,-0.1246,-0.1249,-0.1258,-0.1281,-0.1288,-0.1294,-0.121,-0.1209,-0.1208,0,0,-0.0841,-0.087,-0.0892,-0.0917,-0.0946,-0.0959,-0.0974,-0.1011,-0.1039,-0.1091,-0.1108,-0.1161,-0.1213,-0.1238,-0.1255,-0.1316,-0.1295,-0.1324,-0.1341,-0.1364,-0.1369,-0.1374,-0.1367,-0.1371,-0.1317,-0.1317,-0.1317,0,-0.0846,-0.0875,-0.0905,-0.0929,-0.0943,-0.097,-0.0993,-0.1024,-0.1076,-0.1096,-0.1113,-0.121,-0.1241,-0.1287,-0.1313,-0.1326,-0.1322,-0.1305,-0.1367,-0.1372,-0.1377,-0.1368,-0.1373,-0.1318,-0.1317,-0.1317,-0.1317,0,-0.0868,-0.0897,-0.0912,-0.0949,-0.0976,-0.0998,-0.1032,-0.1064,-0.1097,-0.1127,-0.12,-0.1254,-0.1308,-0.1328,-0.1341,-0.1393,-0.1372,-0.1372,-0.134,-0.1384,-0.1373,-0.1378,-0.1319,-0.1318,-0.1318,-0.1318,0,0,-0.0857,-0.0915,-0.0922,-0.0939,-0.0984,-0.1003,-0.104,-0.108,-0.1104,-0.1172,-0.1213,-0.1302,-0.1337,-0.1362,-0.1388,-0.1414,-0.145,-0.1409,-0.141,-0.1382,-0.1474,-0.1337,-0.1328,-0.145,-0.1451,-0.1452,-0.1443,0,-0.0865,-0.0898,-0.0933,-0.0968,-0.0986,-0.1019,-0.1054,-0.1091,-0.1135,-0.1184,-0.1244,-0.1309,-0.1345,-0.1378,-0.1414,-0.1449,-0.1466,-0.1451,-0.1453,-0.1453,-0.131,-0.1331,-0.1457,-0.1446,-0.1447,-0.1448,-0.1449,0,-0.0869,-0.0888,-0.0919,-0.0965,-0.0981,-0.1009,-0.1049,-0.1089,-0.115,-0.1187,-0.1252,-0.1305,-0.1378,-0.1398,-0.1473,-0.1457,-0.1475,-0.1492,-0.1492,-0.1369,-0.1326,-0.1402,-0.1457,-0.1456,-0.1456,-0.1455,-0.1455,0,-0.0822,-0.0878,-0.0896,-0.0913,-0.0971,-0.0993,-0.1029,-0.1088,-0.1117,-0.1195,-0.1218,-0.1313,-0.1352,-0.1412,-0.1466,-0.1473,-0.1516,-0.1525,-0.1413,-0.1403,-0.1526,-0.1521,-0.157,-0.157,-0.157,-0.157,-0.157,0,-0.0798,-0.0819,-0.0877,-0.0887,-0.091,-0.0971,-0.1003,-0.1048,-0.1109,-0.1128,-0.1227,-0.1243,-0.1359,-0.1396,-0.1452,-0.1432,-0.1505,-0.1417,-0.1395,-0.1526,-0.1522,-0.1527,-0.1522,-0.157,-0.157,-0.157,-0.157,0,-0.0746,-0.0786,-0.0811,-0.0871,-0.0887,-0.0908,-0.097,-0.0989,-0.1062,-0.1082,-0.1108,-0.1191,-0.1232,-0.1315,-0.139,-0.138,-0.1402,-0.1375,-0.1487,-0.1471,-0.1278,-0.1274,-0.1253,-0.1248,-0.1244,-0.1241,-0.1238,0,-0.0719,-0.0725,-0.0781,-0.0785,-0.0816,-0.0849,-0.0863,-0.0947,-0.0962,-0.1029,-0.1023,-0.1081,-0.1126,-0.1114,-0.122,-0.128,-0.1282,-0.1277,-0.131,-0.1267,-0.1248,-0.1251,-0.1252,-0.1231,-0.123,-0.1229,-0.1228,0,-0.0665,-0.0695,-0.0711,-0.0714,-0.0732,-0.0746,-0.0778,-0.0779,-0.0857,-0.0919,-0.0905,-0.0935,-0.095,-0.1019,-0.1054,-0.1111,-0.128,-0.1235,-0.1244,-0.1275,-0.124,-0.1226,-0.1233,-0.1214,-0.1216,-0.1217,-0.1218,0,-0.0627,-0.0618,-0.0636,-0.0637,-0.0646,-0.0642,-0.0675,-0.0679,-0.0705,-0.0785,-0.0764,-0.0838,-0.0901,-0.0927,-0.0973,-0.0999,-0.101,-0.1006,-0.1028,-0.1045,-0.0989,-0.0914,-0.0764,0,0,0,0,0,-0.0583,-0.0563,-0.0552,-0.0547,-0.0552,-0.0564,-0.0608,-0.0647,-0.071,-0.0663,-0.0714,-0.0727,-0.0765,-0.0815,-0.081,-0.0916,-0.1035,-0.0907,-0.1047,-0.1135,-0.1151,-0.1108,0,0,0,0,0,0,-0.0552,-0.0541,-0.0529,-0.0469,-0.0445,-0.0449,-0.048,-0.0531,-0.0517,-0.0583,-0.0612,-0.0658,-0.0723,-0.0744,-0.078,-0.0799,-0.087,-0.0958,-0.0956,-0.1126,-0.1141,-0.1154,-0.1115,0,0,0,0,0]},{"header":{"parameterUnit":"m.s-1","parameterCategory":2,"la1":30.2991,"la2":30.254,"lo1":-89.0895,"lo2":-89.0444,"dy":0.0017,"dx":0.0017,"nx":28,"ny":28,"refTime":"2026-02-02T09:00:00:Z","depth":"4","parameterNumber":3,"parameterNumberName":"V-component_of_CURRENTS"},"data":[0,0,0,0,0,0,0,0,0,0,0,0,0,0,0,0,0,0,0,0,0,0,0,0,0,0,0,0,0,0,0,0,0,0,0,0,0,0,0,0,0,0,0,0,0,0,0,0,0,0,0,0,0,0,0,0,0,0,-0.0194,-0.0193,0,-0.0176,-0.0176,-0.0176,-0.0162,-0.0162,-0.0161,-0.0161,-0.0101,-0.01,-0.0098,0,0,0,0,0,0,0,0,0,0,0,0,0,-0.0213,-0.0213,-0.0194,-0.0193,-0.0193,-0.0176,-0.0176,-0.0176,-0.0162,-0.0161,-0.0161,-0.0161,-0.0102,-0.01,-0.0098,0,0,0,0,0,0,0,0,0,0,0,0,0,-0.0202,-0.0213,-0.0194,-0.0183,-0.0182,-0.0176,-0.0176,-0.0176,-0.0162,-0.0161,-0.0161,-0.0161,-0.0102,-0.01,-0.0098,-0.0094,0,0,-0.0092,-0.0091,0,0,0,0,0,0,0,0,-0.0203,-0.0202,-0.0185,-0.0184,-0.0182,-0.0169,-0.0161,-0.0146,-0.0162,-0.0171,-0.0161,-0.016,-0.0119,-0.0116,-0.0116,-0.0091,-0.0089,-0.0092,-0.0091,-0.009,-0.0089,0,0,0,0,0,0,0,-0.0203,-0.0202,-0.0188,-0.0185,-0.0183,-0.0178,-0.0176,-0.0158,-0.0148,-0.017,-0.0169,-0.0165,-0.0118,-0.0118,-0.0115,-0.0088,-0.0092,-0.009,-0.0089,-0.0088,-0.0087,-0.0089,0,0,0,0,0,0,-0.0203,-0.0203,-0.0189,-0.0188,-0.019,-0.0178,-0.0176,-0.0175,-0.0149,-0.0145,-0.0165,-0.0164,-0.0122,-0.0117,-0.0112,-0.0141,-0.009,-0.0088,-0.0087,-0.0086,-0.0088,-0.0089,0,0,0,0,0,0,-0.0204,-0.0202,-0.0189,-0.0193,-0.0191,-0.0178,-0.0177,-0.0175,-0.0172,-0.0145,-0.014,-0.0163,-0.0121,-0.0115,-0.0105,-0.0137,-0.0087,-0.0085,-0.0085,-0.0087,-0.0088,-0.0176,0,0,0,0,0,0,-0.0205,-0.0203,-0.0204,-0.0194,-0.0191,-0.0193,-0.0177,-0.0175,-0.0169,-0.0168,-0.0142,-0.0136,-0.0121,-0.0108,-0.0103,-0.0133,-0.0084,-0.0083,-0.0086,-0.0088,-0.0171,-0.018,-0.0188,0,0,0,0,0,-0.0205,-0.0211,-0.0205,-0.0203,-0.0193,-0.0193,-0.0192,-0.0181,-0.0169,-0.0175,-0.0159,-0.0137,-0.0119,-0.0107,-0.0101,-0.0132,-0.0082,-0.0085,-0.0088,-0.0168,-0.0179,-0.0188,0,0,0,0,0,0,-0.0221,-0.021,-0.0203,-0.0205,-0.0201,-0.019,-0.0193,-0.0182,-0.0175,-0.0172,-0.0144,-0.0138,-0.0146,-0.0122,-0.0109,-0.0138,-0.01,-0.0102,-0.0163,-0.0173,-0.0181,-0.0182,-0.0082,0,0,0,0,0,-0.0224,-0.0227,-0.0215,-0.0218,-0.0216,-0.0204,-0.0201,-0.0195,-0.0185,-0.0181,-0.0167,-0.0154,-0.0153,-0.0148,-0.014,-0.0146,-0.0107,-0.0164,-0.0172,-0.018,-0.0176,-0.0151,-0.0157,-0.0098,-0.0098,-0.0098,0,0,-0.0231,-0.0225,-0.0227,-0.0222,-0.0217,-0.0234,-0.0202,-0.0203,-0.0223,-0.0175,-0.0195,-0.0179,-0.0161,-0.018,-0.0181,-0.0161,-0.0176,-0.0183,-0.0189,-0.0182,-0.0154,-0.016,-0.0165,-0.01,-0.0099,-0.0099,0,0,-0.0252,-0.0241,-0.0253,-0.0256,-0.0252,-0.0251,-0.0252,-0.0245,-0.0247,-0.0258,-0.0239,-0.024,-0.023,-0.0234,-0.0232,-0.0276,-0.0221,-0.0275,-0.0317,-0.0293,-0.0298,-0.0301,-0.0258,-0.0257,-0.0279,-0.0279,-0.0279,0,-0.0262,-0.0274,-0.0257,-0.0275,-0.0286,-0.0263,-0.0289,-0.0292,-0.0286,-0.029,-0.0275,-0.0276,-0.0262,-0.0287,-0.0309,-0.0297,-0.0259,-0.0283,-0.0304,-0.0306,-0.0308,-0.0263,-0.0261,-0.0284,-0.0283,-0.0283,-0.0282,0,-0.0292,-0.0308,-0.0317,-0.0337,-0.0349,-0.0364,-0.0369,-0.0382,-0.0378,-0.0373,-0.0386,-0.0369,-0.0366,-0.0374,-0.0355,-0.0373,-0.0333,-0.0318,-0.0278,-0.0319,-0.0269,-0.0265,-0.029,-0.0289,-0.0287,-0.0286,0,0,-0.0301,-0.0333,-0.0338,-0.0364,-0.0384,-0.0399,-0.0438,-0.0459,-0.048,-0.0472,-0.0492,-0.0498,-0.0467,-0.0462,-0.0442,-0.0426,-0.0415,-0.0379,-0.0376,-0.0336,-0.034,-0.0273,-0.0261,-0.0397,-0.0396,-0.0396,-0.0299,0,-0.0332,-0.0382,-0.0391,-0.0451,-0.0479,-0.0488,-0.0528,-0.0545,-0.0548,-0.0562,-0.0537,-0.0543,-0.0508,-0.0507,-0.0487,-0.0432,-0.0407,-0.0441,-0.0306,-0.0301,-0.0237,-0.0256,-0.0396,-0.0296,-0.0294,-0.0294,-0.0293,0,-0.0361,-0.0391,-0.0453,-0.0514,-0.0527,-0.0566,-0.0622,-0.065,-0.066,-0.0657,-0.0647,-0.0613,-0.0595,-0.0558,-0.0473,-0.049,-0.042,-0.0372,-0.0367,-0.0268,-0.0227,-0.0245,-0.0285,-0.0285,-0.0286,-0.0287,-0.0287,0,-0.0378,-0.0439,-0.0493,-0.0513,-0.0575,-0.0614,-0.0648,-0.0677,-0.07,-0.0708,-0.0712,-0.0673,-0.0655,-0.057,-0.0455,-0.0463,-0.0342,-0.0342,-0.0214,-0.0207,-0.0258,-0.0255,-0.0278,-0.0278,-0.0278,-0.0279,-0.0279,0,-0.0408,-0.0454,-0.0509,-0.0539,-0.0611,-0.0642,-0.0706,-0.0735,-0.076,-0.0776,-0.0751,-0.0746,-0.0655,-0.0569,-0.0465,-0.031,-0.0342,-0.0214,-0.018,-0.0297,-0.0299,-0.0254,-0.0252,-0.0275,-0.0276,-0.0277,-0.0277,0,-0.0424,-0.0458,-0.0526,-0.0597,-0.0623,-0.0674,-0.0743,-0.0778,-0.0801,-0.0823,-0.0823,-0.0792,-0.0676,-0.0554,-0.0412,-0.032,-0.0185,-0.0121,-0.0234,-0.0209,-0.0066,-0.007,0.0017,0.002,0.0022,0.0025,0.0026,0,-0.0439,-0.0472,-0.0561,-0.0602,-0.064,-0.0709,-0.0753,-0.0796,-0.0818,-0.0837,-0.0837,-0.0759,-0.0706,-0.0456,-0.0336,-0.0117,-0.0088,-0.0022,-0.0066,-0.0061,-0.0037,-0.0045,-0.0053,0.0031,0.0031,0.0032,0.0033,0,-0.0463,-0.0495,-0.0545,-0.0621,-0.0682,-0.0748,-0.0803,-0.0816,-0.0848,-0.0869,-0.0823,-0.0718,-0.0586,-0.0424,-0.0244,-0.0096,-0.0073,0.0006,0.0001,-0.0041,-0.0043,-0.0023,-0.0034,0.0042,0.0041,0.004,0.0039,0,-0.0476,-0.0513,-0.0571,-0.0636,-0.0711,-0.0765,-0.0797,-0.0807,-0.0826,-0.0827,-0.0805,-0.069,-0.0636,-0.041,-0.0246,-0.0085,-0.0061,-0.003,-0.0033,-0.0042,-0.0087,-0.0101,0.0001,0,0,0,0,0,-0.0484,-0.0517,-0.0578,-0.0656,-0.0727,-0.0766,-0.0819,-0.0837,-0.0852,-0.0808,-0.0802,-0.067,-0.0452,-0.0382,-0.0205,-0.0198,-0.0034,0.0013,0.0,0.0093,0.0082,0.0045,0,0,0,0,0,0,-0.0494,-0.0547,-0.0571,-0.0649,-0.0698,-0.0775,-0.0806,-0.082,-0.0784,-0.0782,-0.0664,-0.0625,-0.0409,-0.0544,-0.0202,-0.0159,-0.0142,0.0106,0.011,0.0099,0.0089,0.0081,0.0039,0,0,0,0,0]}]]